Ionia, MI

10:54 AM EST on February 24, 2017 (GMT -0500)
Ionia

Weather History for KY70 - May, 2014

Change the Weather History Date:

Saturday, May 3, 2014

  Actual Average (KGRR) Record (KGRR)
Temperature  
Mean Temperature 50 °F -  
Max Temperature 57 °F 62 °F 87 °F (1955)
Min Temperature 44 °F 40 °F 26 °F (1971)
Degree Days  
Heating Degree Days 14    
Moisture  
Dew Point 40 °F    
Average Humidity 71    
Maximum Humidity 97    
Minimum Humidity 38    
Precipitation  
Precipitation 0.05 in - - ()
Sea Level Pressure  
Sea Level Pressure 29.70 in    
Wind  
Wind Speed 11 mph (WSW)    
Max Wind Speed 28 mph    
Max Gust Speed 38 mph    
Visibility 9 miles    
Events Rain    
Averages and records for this station are not official NWS values.
T = Trace of Precipitation, MM = Missing Value Source: NWS Daily Summary

Daily Weather History Graph

Daily Weather History Graph

Search for Another Location

Airport or City:

Trip Planner

Search our weather history database for the weather conditions in past years. The results will help you decide how hot, cold, wet, or windy it might be!

Date:

Astronomy

May. 03, 2014 Rise Set
Actual Time 6:31 AM EDT 8:43 PM EDT
Civil Twilight 6:00 AM EDT 9:14 PM EDT
Nautical Twilight 5:21 AM EDT 9:53 PM EDT
Astronomical Twilight 4:39 AM EDT 10:36 PM EDT
Moon 9:59 AM EDT (5/3) 12:05 AM EDT (5/3)
Length of Visible Light 15h 14m
Length of Day
14h 11m
Waxing Crescent, 19% of the Moon is Illuminated
May 3
Waxing Crescent
May 6
First Quarter
May 14
Full
May 21
Last Quarter
May 28
New

Hourly Weather History & Observations

Time (EDT) Temp. Windchill Dew Point Humidity Pressure Visibility Wind Dir Wind Speed Gust Speed Precip Events Conditions
12:14 AM 45.7 °F 41.5 °F 43.7 °F 93% 29.74 in 10.0 mi SW 8.1 mph - N/A   Overcast
12:34 AM 45.5 °F 40.8 °F 43.7 °F 93% 29.73 in 7.0 mi SW 9.2 mph - N/A   Overcast
12:53 AM 45.5 °F 41.3 °F 43.7 °F 93% 29.73 in 7.0 mi SW 8.1 mph - N/A   Overcast
1:14 AM 45.7 °F 41.5 °F 43.7 °F 93% 29.73 in 7.0 mi SW 8.1 mph - N/A   Overcast
1:33 AM 45.7 °F 41.5 °F 43.7 °F 93% 29.72 in 7.0 mi SW 8.1 mph - N/A   Overcast
1:53 AM 45.7 °F 42.0 °F 43.7 °F 93% 29.71 in 7.0 mi SW 6.9 mph - N/A   Overcast
2:14 AM 45.5 °F 41.8 °F 43.7 °F 93% 29.71 in 10.0 mi SW 6.9 mph - N/A   Overcast
2:33 AM 45.5 °F 41.8 °F 43.7 °F 93% 29.70 in 10.0 mi SSW 6.9 mph - N/A   Mostly Cloudy
2:54 AM 44.8 °F 41.6 °F 43.2 °F 94% 29.69 in 10.0 mi SSW 5.8 mph - N/A   Mostly Cloudy
3:14 AM 45.1 °F 41.4 °F 43.3 °F 93% 29.69 in 10.0 mi SSW 6.9 mph - N/A   Overcast
3:33 AM 45.5 °F 41.3 °F 43.7 °F 93% 29.68 in 10.0 mi SSW 8.1 mph - N/A   Overcast
3:54 AM 45.5 °F 40.8 °F 43.5 °F 93% 29.67 in 10.0 mi SSW 9.2 mph - N/A   Overcast
4:13 AM 45.5 °F 42.5 °F 43.3 °F 92% 29.67 in 10.0 mi SSW 5.8 mph - N/A   Overcast
4:34 AM 45.7 °F 42.0 °F 43.7 °F 93% 29.67 in 7.0 mi SSW 6.9 mph - N/A Rain Light Rain
4:53 AM 45.5 °F 42.5 °F 43.9 °F 94% 29.66 in 7.0 mi SSW 5.8 mph - 0.01 in Rain Light Rain
5:14 AM 45.3 °F - 44.1 °F 95% 29.65 in 4.0 mi Calm Calm - 0.04 in Rain Rain
5:33 AM 44.6 °F 42.2 °F 43.7 °F 97% 29.64 in 5.0 mi East 4.6 mph - 0.04 in   Light Drizzle
6:13 AM 44.8 °F 41.0 °F 43.9 °F 97% 29.63 in 7.0 mi SSE 6.9 mph - N/A Rain Light Rain
6:34 AM 45.1 °F 41.4 °F 44.1 °F 96% 29.62 in 7.0 mi SSE 6.9 mph - N/A Rain Light Rain
6:54 AM 45.5 °F 42.5 °F 44.2 °F 95% 29.62 in 10.0 mi South 5.8 mph - N/A   Overcast
7:13 AM 45.7 °F 41.5 °F 44.2 °F 95% 29.61 in 10.0 mi South 8.1 mph - N/A   Overcast
7:34 AM 46.4 °F 41.5 °F 44.1 °F 92% 29.61 in 10.0 mi South 10.4 mph - N/A   Overcast
7:54 AM 46.6 °F - 43.9 °F 90% 29.61 in 10.0 mi SSW 9.2 mph - N/A   Overcast
8:13 AM 47.1 °F - 44.2 °F 90% 29.61 in 10.0 mi SSW 10.4 mph - N/A   Overcast
8:34 AM 47.7 °F - 44.4 °F 89% 29.60 in 10.0 mi SSW 15.0 mph - N/A   Overcast
8:53 AM 47.8 °F - 44.2 °F 87% 29.60 in 10.0 mi SSW 12.7 mph - N/A   Overcast
9:13 AM 47.8 °F - 43.9 °F 86% 29.61 in 10.0 mi SW 11.5 mph - N/A   Overcast
9:34 AM 48.2 °F - 44.1 °F 86% 29.61 in 10.0 mi SW 11.5 mph - N/A   Overcast
9:53 AM 48.6 °F - 44.8 °F 87% 29.60 in 10.0 mi WSW 11.5 mph 18.4 mph N/A   Overcast
10:13 AM 48.4 °F - 44.8 °F 87% 29.61 in 10.0 mi WSW 16.1 mph - N/A   Light Drizzle
10:34 AM 47.3 °F - 43.9 °F 88% 29.61 in 10.0 mi West 15.0 mph 23.0 mph N/A   Overcast
10:53 AM 48.2 °F - 44.6 °F 87% 29.62 in 7.0 mi West 17.3 mph - N/A   Overcast
11:13 AM 49.6 °F - 44.6 °F 83% 29.62 in 10.0 mi West 17.3 mph 21.9 mph N/A   Overcast
11:34 AM 50.4 °F - 44.1 °F 79% 29.63 in 10.0 mi WNW 20.7 mph 26.5 mph N/A   Overcast
11:53 AM 51.3 °F - 43.7 °F 75% 29.64 in 10.0 mi WNW 20.7 mph 31.1 mph N/A   Overcast
12:13 PM 53.1 °F - 43.9 °F 71% 29.64 in 10.0 mi WNW 19.6 mph 26.5 mph N/A   Overcast
12:34 PM 54.3 °F - 43.0 °F 66% 29.65 in 10.0 mi WNW 19.6 mph 27.6 mph N/A   Mostly Cloudy
12:53 PM 55.4 °F - 41.9 °F 60% 29.65 in 10.0 mi WNW 15.0 mph 23.0 mph N/A   Mostly Cloudy
1:13 PM 57.6 °F - 42.3 °F 57% 29.65 in 10.0 mi WNW 18.4 mph 23.0 mph N/A   Mostly Cloudy
1:34 PM 55.6 °F - 39.9 °F 56% 29.66 in 10.0 mi West 23.0 mph 31.1 mph N/A   Overcast
1:53 PM 55.6 °F - 39.4 °F 55% 29.67 in 10.0 mi WNW 26.5 mph 36.8 mph N/A   Mostly Cloudy
2:14 PM 55.6 °F - 39.7 °F 55% 29.68 in 10.0 mi WNW 26.5 mph 35.7 mph N/A   Mostly Cloudy
2:33 PM 54.7 °F - 39.6 °F 57% 29.69 in 10.0 mi West 24.2 mph 31.1 mph N/A   Overcast
2:53 PM 54.7 °F - 40.3 °F 58% 29.69 in 10.0 mi WNW 20.7 mph 27.6 mph N/A   Overcast
3:11 PM 55.6 °F - 40.1 °F 56% 29.70 in 10.0 mi WNW 27.6 mph 38.0 mph N/A   Mostly Cloudy
3:37 PM 55.4 °F - 39.2 °F 54% 29.70 in 10.0 mi West 19.6 mph 33.4 mph N/A   Overcast
3:57 PM 55.4 °F - 37.4 °F 51% 29.71 in 10.0 mi West 19.6 mph 31.1 mph N/A   Overcast
4:17 PM 55.4 °F - 37.4 °F 51% 29.72 in 10.0 mi West 17.3 mph 31.1 mph N/A   Mostly Cloudy
4:37 PM 55.4 °F - 37.4 °F 51% 29.72 in 10.0 mi WNW 20.7 mph 32.2 mph N/A   Mostly Cloudy
4:58 PM 55.4 °F - 37.4 °F 51% 29.73 in 10.0 mi West 23.0 mph 29.9 mph N/A   Mostly Cloudy
5:18 PM 55.4 °F - 37.4 °F 51% 29.74 in 10.0 mi West 19.6 mph 27.6 mph N/A   Scattered Clouds
5:38 PM 55.4 °F - 35.6 °F 47% 29.74 in 10.0 mi West 19.6 mph 29.9 mph N/A   Scattered Clouds
5:57 PM 57.2 °F - 35.6 °F 44% 29.75 in 10.0 mi West 16.1 mph 29.9 mph N/A   Scattered Clouds
6:17 PM 57.2 °F - 35.6 °F 44% 29.76 in 10.0 mi West 20.7 mph 29.9 mph N/A   Scattered Clouds
6:38 PM 57.2 °F - 33.8 °F 41% 29.77 in 10.0 mi West 18.4 mph 28.8 mph N/A   Scattered Clouds
6:57 PM 55.4 °F - 33.8 °F 44% 29.77 in 10.0 mi WNW 23.0 mph 29.9 mph N/A   Scattered Clouds
7:19 PM 55.4 °F - 30.2 °F 38% 29.77 in 10.0 mi West 20.7 mph 32.2 mph N/A   Clear
7:37 PM 55.4 °F - 32.0 °F 41% 29.77 in 10.0 mi WNW 12.7 mph - N/A   Scattered Clouds
7:59 PM 55.4 °F - 30.2 °F 38% 29.78 in 10.0 mi WNW 9.2 mph - N/A   Scattered Clouds
8:17 PM 53.6 °F - 30.2 °F 41% 29.78 in 10.0 mi WNW 11.5 mph - N/A   Scattered Clouds
8:37 PM 51.8 °F - 30.2 °F 44% 29.79 in 10.0 mi West 6.9 mph - N/A   Clear
9:03 PM 51.8 °F - 30.2 °F 44% 29.79 in 10.0 mi West 5.8 mph - N/A   Clear
9:17 PM 51.8 °F - 30.2 °F 44% 29.80 in 10.0 mi West 5.8 mph - N/A   Clear
9:37 PM 48.2 °F - 33.8 °F 58% 29.80 in 10.0 mi West 4.6 mph - N/A   Scattered Clouds
9:58 PM 48.2 °F - 33.8 °F 58% 29.81 in 10.0 mi WSW 5.8 mph - N/A   Overcast
10:17 PM 48.2 °F - 33.8 °F 58% 29.81 in 10.0 mi West 5.8 mph - N/A   Overcast
10:37 PM 48.2 °F - 35.6 °F 62% 29.82 in 10.0 mi WSW 6.9 mph - N/A   Overcast
10:58 PM 50.0 °F - 33.8 °F 54% 29.82 in 10.0 mi WSW 6.9 mph - N/A   Overcast
11:18 PM 50.0 °F - 35.6 °F 58% 29.82 in 10.0 mi West 6.9 mph - N/A   Overcast
11:37 PM 50.0 °F - 33.8 °F 54% 29.82 in 10.0 mi West 8.1 mph - N/A   Overcast
11:57 PM 50.0 °F - 33.8 °F 54% 29.82 in 10.0 mi West 5.8 mph - N/A   Overcast